TimeCST,TemperatureF,Dew PointF,Humidity,Sea Level PressureIn,VisibilityMPH,Wind Direction,Wind SpeedMPH,Gust SpeedMPH,PrecipitationIn,Events,Conditions,WindDirDegrees,DateUTC
12:56 AM,52.0,50.0,93,29.99,10.0,NNW,16.1,-,0.00,,Overcast,330,2013-02-08 06:56:00
1:56 AM,50.0,46.9,89,30.00,10.0,NNW,13.8,-,N/A,,Overcast,340,2013-02-08 07:56:00
2:56 AM,47.8,43.0,83,30.04,10.0,NW,18.4,-,N/A,,Overcast,320,2013-02-08 08:56:00
3:56 AM,46.9,41.9,83,30.07,10.0,NNW,13.8,21.9,N/A,,Overcast,330,2013-02-08 09:56:00
4:17 AM,46.4,42.8,87,30.08,10.0,North,11.5,19.6,N/A,,Overcast,350,2013-02-08 10:17:00
4:41 AM,46.4,42.8,87,30.10,10.0,NW,9.2,17.3,N/A,,Overcast,320,2013-02-08 10:41:00
4:56 AM,45.9,39.9,80,30.11,10.0,NNW,16.1,-,N/A,,Overcast,330,2013-02-08 10:56:00
5:56 AM,45.0,41.0,86,30.15,10.0,NNW,9.2,-,N/A,,Overcast,340,2013-02-08 11:56:00
6:56 AM,43.9,36.9,76,30.19,10.0,North,-9999.0,-,N/A,,Overcast,0,2013-02-08 12:56:00
7:56 AM,43.0,34.9,73,30.22,10.0,North,17.3,-,N/A,,Overcast,350,2013-02-08 13:56:00
8:56 AM,41.9,34.9,76,30.26,10.0,North,18.4,25.3,N/A,,Overcast,350,2013-02-08 14:56:00
9:56 AM,41.0,32.9,73,30.30,10.0,North,19.6,-,N/A,,Overcast,350,2013-02-08 15:56:00
10:56 AM,43.0,34.0,71,30.31,10.0,North,-9999.0,-,N/A,,Overcast,0,2013-02-08 16:56:00
11:56 AM,45.0,34.9,68,30.31,10.0,NNE,16.1,21.9,N/A,,Partly Cloudy,20,2013-02-08 17:56:00
12:31 PM,44.6,33.8,66,30.31,10.0,North,9.2,17.3,N/A,,Mostly Cloudy,360,2013-02-08 18:31:00
12:56 PM,45.9,36.0,68,30.30,10.0,North,-9999.0,-,N/A,,Overcast,0,2013-02-08 18:56:00
1:44 PM,46.4,35.6,66,30.29,10.0,NE,12.7,18.4,N/A,,Scattered Clouds,50,2013-02-08 19:44:00
1:56 PM,46.9,36.0,66,30.28,10.0,NE,13.8,-,N/A,,Partly Cloudy,50,2013-02-08 19:56:00
2:56 PM,46.9,36.0,66,30.29,10.0,NE,15.0,26.5,N/A,,Partly Cloudy,40,2013-02-08 20:56:00
3:56 PM,45.9,36.0,68,30.31,10.0,North,-9999.0,-,N/A,,Mostly Cloudy,0,2013-02-08 21:56:00
4:27 PM,44.6,35.6,71,30.31,10.0,ENE,11.5,-,N/A,,Scattered Clouds,70,2013-02-08 22:27:00
4:56 PM,45.0,36.0,71,30.30,10.0,East,8.1,-,N/A,,Clear,100,2013-02-08 22:56:00
5:22 PM,44.6,37.4,76,30.28,9.0,ENE,11.5,-,N/A,,Clear,60,2013-02-08 23:22:00
5:56 PM,41.0,36.0,82,30.30,8.0,East,8.1,-,N/A,,Clear,80,2013-02-08 23:56:00
6:56 PM,38.8,34.0,83,30.34,9.0,East,6.9,-,N/A,,Clear,90,2013-02-09 00:56:00
7:56 PM,36.0,32.9,89,30.35,8.0,East,6.9,-,N/A,,Clear,80,2013-02-09 01:56:00
8:56 PM,34.9,32.0,89,30.35,9.0,ENE,10.4,-,N/A,,Clear,70,2013-02-09 02:56:00
9:56 PM,34.9,31.1,86,30.35,10.0,ENE,8.1,-,N/A,,Clear,70,2013-02-09 03:56:00
10:56 PM,32.0,31.1,96,30.34,6.0,NNE,8.1,-,N/A,,Clear,30,2013-02-09 04:56:00
11:56 PM,32.0,31.1,96,30.33,8.0,NE,4.6,-,N/A,,Clear,50,2013-02-09 05:56:00